Regional Weather Roundup
Issued by NWS Newport/Morehead, NC

Current Version | Previous Version | Graphics & Text | Print | Product List | Glossary Off
Versions: 1 2 3 4 5 6 7 8 9 10 11 12 13 14 15 16 17 18 19 20 21 22 23 24 25 26 27 28 29 30 31 32 33 34 35 36 37 38 39 40 41 42 43 44 45 46 47 48 49 50

000
ASUS42 KMHX 011924
RWRMHX
WEATHER ROUNDUP FOR EASTERN NORTH CAROLINA
NATIONAL WEATHER SERVICE NEWPORT/MOREHEAD CITY NC
200 PM EST SUN MAR 01 2015

NOTE: "FAIR" INDICATES FEW OR NO CLOUDS BELOW 12,000 FEET
WITH NO SIGNIFICANT WEATHER AND/OR OBSTRUCTIONS TO VISIBILITY

NCZ015>017-031-032-045>047-102-103-012000-
NORTH COAST

CITY           SKY/WX    TMP DP  RH WIND       PRES   REMARKS
EDENTON        RAIN      39  38  94 CALM      30.44S
ELIZABETH CITY CLOUDY    43  40  89 CALM      30.45S
KITTY HAWK     CLOUDY    48  45  89 SE3       30.42F
MANTEO         CLOUDY    52  46  82 S5        30.43F

$$

NCZ045>047-081-094-103-104-012000-
CENTRAL COAST

CITY           SKY/WX    TMP DP  RH WIND       PRES   REMARKS
FRISCO         CLOUDY    52  46  80 SE8       30.43F
SWANQUARTER      N/A     52 N/A N/A CALM      30.39S

$$

NCZ095-097-098-100-101-012000-
SOUTHERN COAST

CITY           SKY/WX    TMP DP  RH WIND       PRES   REMARKS
BEAUFORT       CLOUDY    63  55  75 S10       30.40F
CEDAR ISLAND     N/A     45 N/A N/A NW3       30.41F
JACKSONVILLE   CLOUDY    52  42  69 N3        30.40F
PINEY ISLAND     N/A    N/A N/A N/A MISG      30.41F
WILMINGTON     LGT RAIN  54  47  77 N3        30.39F


$$

NCZ011>013-027>030-043-044-078>080-089-090>093-098-012000-
COASTAL PLAIN

CITY           SKY/WX    TMP DP  RH WIND       PRES   REMARKS
AHOSKIE        LGT RAIN  33  32  96 N3        30.45F
CLINTON        DRIZZLE   37  37 100 NW5       30.45S
ELIZABETHTOWN  DRIZZLE   38  38  97 NW5       30.44F
GOLDSBORO      MIX PCPN  37  37 100 CALM      30.40F
GREENVILLE     RAIN      37  37 100 N6        30.42F
HAVELOCK       CLOUDY    52  42  69 NE3       30.42F
KENANSVILLE    CLOUDY    40  38  95 W6        30.44S
KINSTON        LGT RAIN  39  37  93 NE3       30.43F
NEW BERN       LGT RAIN  48  44  86 CALM      30.42F
RICHLANDS      CLOUDY    46  39  76 CALM      30.42F
ROCKY MOUNT    RAIN      34  33  96 N7        30.42F FOG
WASHINGTON     RAIN      41  40  95 NE3       30.41F
WHITEVILLE     CLOUDY    40  38  92 CALM      30.43F

$$

AMZ130-135-150-152-154-156-158-170-250-252-270-ANZ085-086-088-633-658-670-012000-
MARINE OBSERVATIONS

STATION/POSITION TIME  TEMP    WIND        PRES    WAVE   SWELL
                       AIR SEA DIR/SP/G            HT/PER HT/PER
                 (UTC) (F)     (DEG/KT/KT) (MB)    (FT/S) (FT/S)
CHESAPEAKE LIGHT 1900   34     350/ 10/ 11 1031.3
64 E VA BEACH    1850   58 62  170/ 23/ 27 1029.8    5/ 5   2/10
DUCK             1800   34 34  350/  5/  6 1031.3
2 E DUCK         1811      34                N/A     3/ 9
10 NE DUCK       1822      36                N/A     4/ 6
OREGON INLET     1800          110/  6/  8 1031.8
HATTERAS CG      1800   53 39  130/  8/ 11 1031.6
CAPE LOOKOUT     1900   57     150/  9/ 10 1029.0
BEAUFORT LAB     1900   59 42  160/  9/ 11 1028.4
27 SE WRIGHTSVLE NOT AVBL
5 SE WRIGHTSVLE  NOT AVBL
225 S CAPE HAT   1850   68 72  120/ 17/ 19 1030.5    9/ 9   5/ 9
41 SE CHARLESTON 1850      68  350/ 14/ 16 1028.6    7/ 7   5/ 7

$$



USA.gov is the U.S. government's official web portal to all federal, state and local government web resources and services.